Weather History for Kimball, NE

Change the Weather History Date:

Sunday, October 6, 2013

  Actual Average (KSNY) Record (KSNY)
Temperature  
Mean Temperature 50 °F 54 °F  
Max Temperature 61 °F 69 °F 93 °F (2007)
Min Temperature 39 °F 39 °F 10 °F (1952)
Degree Days  
Heating Degree Days 15 11  
Month to date heating degree days 63  
Since 1 July heating degree days 203  
Cooling Degree Days 0 0  
Month to date cooling degree days 1  
Year to date cooling degree days 827  
Moisture  
Dew Point 32 °F    
Average Humidity 55    
Maximum Humidity 77    
Minimum Humidity 34    
Precipitation  
Precipitation 0.00 in 0.04 in 1.13 in (1994)
Month to date precipitation 0.24  
Year to date precipitation 16.65  
Sea Level Pressure  
Sea Level Pressure 30.19 in    
Wind  
Wind Speed 18 mph (NW)    
Max Wind Speed 25 mph    
Max Gust Speed 32 mph    
Visibility 10 miles    
Events      
T = Trace of Precipitation, MM = Missing Value Source: NWS Daily Summary

Daily Weather History Graph

Daily Weather History Graph

Search for Another Location

Airport:

Trip Planner

Search our weather history database for the weather conditions in past years. The results will help you decide how hot, cold, wet, or windy it might be!

Date:

Astronomy

Oct. 06, 2013 Rise Set
Actual Time 7:56 AM CDT 7:27 PM CDT
Civil Twilight 7:29 AM CDT 7:55 PM CDT
Nautical Twilight 6:57 AM CDT 8:27 PM CDT
Astronomical Twilight 6:25 AM CDT 8:59 PM CDT
Moon 9:45 AM CDT (10/6) 8:27 PM CDT (10/6)
Length of Visible Light 12h 25m
Length of Day
11h 30m
Waxing Crescent, 3% of the Moon is Illuminated
Oct 6
Waxing Crescent
Oct 11
First Quarter
Oct 18
Full
Oct 26
Last Quarter
Nov 3
New

Hourly Weather History & Observations

Time (CDT) Temp. Windchill Dew Point Humidity Pressure Visibility Wind Dir Wind Speed Gust Speed Precip Events Conditions
12:15 AM 41.2 °F 31.1 °F 27.7 °F 59% 30.13 in 10.0 mi NW 24.2 mph 31.1 mph N/A   Clear
12:35 AM 41.4 °F 31.6 °F 28.2 °F 60% 30.13 in 10.0 mi NW 23.0 mph 29.9 mph N/A   Clear
12:55 AM 41.0 °F 31.4 °F 28.4 °F 61% 30.13 in 10.0 mi NW 21.9 mph 26.5 mph N/A   Clear
1:15 AM 40.5 °F 31.8 °F 28.8 °F 63% 30.13 in 10.0 mi NW 17.3 mph - N/A   Clear
1:35 AM 40.3 °F 31.0 °F 29.3 °F 65% 30.14 in 10.0 mi WNW 19.6 mph - N/A   Clear
1:55 AM 40.3 °F 31.6 °F 29.3 °F 65% 30.15 in 10.0 mi WNW 17.3 mph 23.0 mph N/A   Clear
2:15 AM 40.1 °F 32.0 °F 29.7 °F 66% 30.16 in 10.0 mi WNW 15.0 mph - N/A   Clear
2:35 AM 40.1 °F 31.6 °F 29.3 °F 65% 30.17 in 10.0 mi WNW 16.1 mph - N/A   Clear
2:55 AM 40.5 °F 31.8 °F 29.5 °F 65% 30.17 in 10.0 mi WNW 17.3 mph - N/A   Clear
3:15 AM 40.5 °F 32.5 °F 29.3 °F 64% 30.17 in 10.0 mi NW 15.0 mph 20.7 mph N/A   Clear
3:35 AM 40.1 °F 32.7 °F 29.3 °F 65% 30.17 in 10.0 mi NW 12.7 mph - N/A   Clear
3:55 AM 40.1 °F 32.0 °F 29.8 °F 67% 30.16 in 10.0 mi NW 15.0 mph - N/A   Clear
4:15 AM 39.7 °F 31.9 °F 29.8 °F 68% 30.17 in 10.0 mi WNW 13.8 mph - N/A   Clear
4:35 AM 39.4 °F 31.8 °F 30.0 °F 69% 30.17 in 10.0 mi WNW 12.7 mph - N/A   Clear
4:55 AM 39.4 °F 31.1 °F 29.8 °F 69% 30.17 in 10.0 mi WNW 15.0 mph - N/A   Clear
5:15 AM 39.7 °F 31.5 °F 29.8 °F 68% 30.17 in 10.0 mi WNW 15.0 mph - N/A   Clear
5:35 AM 40.3 °F 31.9 °F 29.8 °F 66% 30.17 in 10.0 mi WNW 16.1 mph 21.9 mph N/A   Clear
5:55 AM 40.3 °F 31.9 °F 29.8 °F 66% 30.17 in 10.0 mi WNW 16.1 mph 20.7 mph N/A   Clear
6:15 AM 40.6 °F 32.0 °F 29.8 °F 65% 30.18 in 10.0 mi WNW 17.3 mph - N/A   Clear
6:35 AM 40.1 °F 31.6 °F 30.0 °F 67% 30.18 in 10.0 mi WNW 16.1 mph - N/A   Clear
6:55 AM 40.1 °F 31.6 °F 30.0 °F 67% 30.19 in 10.0 mi WNW 16.1 mph - N/A   Clear
7:15 AM 40.1 °F 31.6 °F 30.0 °F 67% 30.19 in 10.0 mi WNW 16.1 mph 20.7 mph N/A   Clear
7:35 AM 40.1 °F 31.3 °F 30.0 °F 67% 30.19 in 10.0 mi WNW 17.3 mph - N/A   Clear
7:55 AM 40.1 °F 31.3 °F 30.2 °F 68% 30.18 in 10.0 mi WNW 17.3 mph - N/A   Clear
8:15 AM 41.2 °F 31.9 °F 30.2 °F 65% 30.17 in 10.0 mi WNW 20.7 mph 26.5 mph N/A   Clear
8:35 AM 42.4 °F 33.8 °F 30.4 °F 62% 30.18 in 10.0 mi WNW 19.6 mph 25.3 mph N/A   Clear
8:55 AM 43.9 °F 35.4 °F 30.7 °F 60% 30.19 in 10.0 mi WNW 20.7 mph 28.8 mph N/A   Clear
9:15 AM 45.7 °F 38.0 °F 30.9 °F 56% 30.19 in 10.0 mi NW 19.6 mph 27.6 mph N/A   Clear
9:35 AM 47.7 °F - 30.9 °F 52% 30.19 in 10.0 mi NW 20.7 mph 25.3 mph N/A   Clear
9:55 AM 49.1 °F - 31.6 °F 51% 30.20 in 10.0 mi WNW 20.7 mph 29.9 mph N/A   Clear
10:15 AM 50.9 °F - 31.8 °F 48% 30.21 in 10.0 mi NW 17.3 mph 25.3 mph N/A   Clear
10:35 AM 52.0 °F - 32.0 °F 47% 30.21 in 10.0 mi NW 24.2 mph 29.9 mph N/A   Clear
10:55 AM 53.1 °F - 32.0 °F 45% 30.22 in 10.0 mi NW 21.9 mph 25.3 mph N/A   Clear
11:15 AM 54.0 °F - 32.2 °F 44% 30.22 in 10.0 mi NW 21.9 mph 27.6 mph N/A   Clear
11:35 AM 55.0 °F - 32.2 °F 42% 30.23 in 10.0 mi NW 19.6 mph 25.3 mph N/A   Clear
11:55 AM 56.5 °F - 31.6 °F 39% 30.23 in 10.0 mi NW 21.9 mph 32.2 mph N/A   Clear
12:15 PM 56.8 °F - 32.4 °F 40% 30.22 in 10.0 mi NW 19.6 mph 27.6 mph N/A   Clear
12:35 PM 57.6 °F - 32.0 °F 38% 30.22 in 10.0 mi NW 21.9 mph 32.2 mph N/A   Clear
12:55 PM 58.1 °F - 31.8 °F 37% 30.23 in 10.0 mi NW 17.3 mph 27.6 mph N/A   Clear
1:15 PM 59.0 °F - 32.0 °F 36% 30.22 in 10.0 mi NW 25.3 mph 29.9 mph N/A   Clear
1:35 PM 59.7 °F - 32.5 °F 36% 30.22 in 10.0 mi NW 24.2 mph - N/A   Clear
1:55 PM 59.4 °F - 32.4 °F 36% 30.21 in 10.0 mi NNW 20.7 mph 29.9 mph N/A   Clear
2:15 PM 60.1 °F - 32.9 °F 36% 30.21 in 10.0 mi NW 20.7 mph 31.1 mph N/A   Clear
2:35 PM 60.3 °F - 32.9 °F 36% 30.20 in 10.0 mi NNW 23.0 mph 29.9 mph N/A   Clear
2:55 PM 60.4 °F - 33.4 °F 36% 30.20 in 10.0 mi NW 19.6 mph 28.8 mph N/A   Clear
3:15 PM 60.1 °F - 32.9 °F 36% 30.21 in 10.0 mi NNW 18.4 mph 27.6 mph N/A   Clear
3:35 PM 60.8 °F - 33.8 °F 36% 30.21 in 10.0 mi NW 19.6 mph 25.3 mph N/A   Clear
3:55 PM 61.0 °F - 34.0 °F 36% 30.21 in 10.0 mi NW 19.6 mph 26.5 mph N/A   Clear
4:15 PM 61.3 °F - 34.0 °F 36% 30.20 in 10.0 mi NW 15.0 mph 23.0 mph N/A   Clear
4:35 PM 61.2 °F - 33.4 °F 35% 30.20 in 10.0 mi NNW 18.4 mph 24.2 mph N/A   Clear
4:55 PM 61.3 °F - 33.6 °F 35% 30.20 in 10.0 mi NW 18.4 mph 25.3 mph N/A   Clear
5:15 PM 61.7 °F - 32.9 °F 34% 30.20 in 10.0 mi NW 13.8 mph 19.6 mph N/A   Clear
5:35 PM 61.7 °F - 32.9 °F 34% 30.20 in 10.0 mi NNW 16.1 mph 23.0 mph N/A   Clear
5:55 PM 61.3 °F - 32.7 °F 34% 30.21 in 10.0 mi NNW 15.0 mph 20.7 mph N/A   Clear
6:15 PM 60.8 °F - 32.9 °F 35% 30.21 in 10.0 mi NNW 12.7 mph 18.4 mph N/A   Clear
6:35 PM 59.9 °F - 34.2 °F 38% 30.21 in 10.0 mi NW 10.4 mph 17.3 mph N/A   Clear
6:55 PM 58.8 °F - 35.1 °F 41% 30.21 in 10.0 mi NNW 6.9 mph - N/A   Clear
7:15 PM 55.6 °F - 36.9 °F 49% 30.21 in 10.0 mi West 6.9 mph - N/A   Clear
7:35 PM 52.5 °F - 37.4 °F 56% 30.21 in 10.0 mi WNW 5.8 mph - N/A   Clear
7:55 PM 50.7 °F - 37.8 °F 61% 30.21 in 10.0 mi WNW 10.4 mph - N/A   Clear
8:15 PM 50.7 °F - 37.4 °F 60% 30.21 in 10.0 mi NW 9.2 mph - N/A   Clear
8:35 PM 50.4 °F - 36.9 °F 60% 30.21 in 10.0 mi NW 6.9 mph - N/A   Clear
8:55 PM 47.5 °F - 37.2 °F 68% 30.21 in 10.0 mi NW 6.9 mph - N/A   Clear
9:15 PM 46.6 °F - 36.9 °F 69% 30.21 in 10.0 mi WNW 8.1 mph - N/A   Clear
9:35 PM 46.2 °F 42.7 °F 36.9 °F 70% 30.20 in 10.0 mi NW 6.9 mph - N/A   Clear
9:55 PM 45.3 °F - 36.9 °F 72% 30.20 in 10.0 mi Calm Calm - N/A   Clear
10:15 PM 45.7 °F 44.4 °F 37.0 °F 72% 30.21 in 10.0 mi WSW 3.5 mph - N/A   Clear
10:35 PM 45.0 °F 39.3 °F 36.9 °F 73% 30.21 in 10.0 mi West 11.5 mph - N/A   Clear
10:55 PM 45.7 °F 40.6 °F 36.5 °F 70% 30.20 in 10.0 mi WNW 10.4 mph - N/A   Clear
11:15 PM 46.8 °F - 35.4 °F 65% 30.20 in 10.0 mi WNW 11.5 mph - N/A   Clear
11:35 PM 45.7 °F 41.0 °F 35.1 °F 66% 30.20 in 10.0 mi WNW 9.2 mph - N/A   Clear
11:55 PM 41.7 °F 37.3 °F 34.9 °F 77% 30.20 in 10.0 mi WSW 6.9 mph - N/A   Clear